Location: Waldport
(44.4270°N, 124.0680°W)
Time: 14:26:30
(UTC-07:00)

OTV 5 (USA 277) - Pass Details

Date: 22 February 2019
Orbit: 315 x 320 km, 54.5° (Epoch: 14 March)

Event Time Altitude Azimuth Distance (km) Brightness Sun altitude
Rises 19:09:51 0° 195° (SSW) 2,047 ? -14.1°
Reaches altitude 10° 19:12:17 10° 171° (S) 1,222 ? -14.5°
Enters shadow 19:12:52 13° 160° (SSE) 1,083 ? -14.6°
